KE5KZS Weather Reports


Display with metric or nautical units.
time (UTC)temp
F
wind
direction
speed
MPH
gust
MPH
rain 1hr
in
rain 24hr
in
rain mn
in
humidity
%
barometer
mb
20260905043015 89 158 2.0 6.0 0.00 0.00 0.00 61 1011.8
20260905042015 89 158 4.0 10.0 0.00 0.00 0.00 60 1011.8
20260905041015 89 203 3.0 8.0 0.00 0.00 0.00 60 1011.7
20260905040035 90 135 3.0 8.0 0.00 0.00 0.00 59 1011.7
20260905035015 90 135 4.0 8.0 0.00 0.00 0.00 58 1011.8
20260905034015 90 158 4.0 10.0 0.00 0.00 0.00 57 1011.8
20260905033015 90 135 2.0 7.0 0.00 0.00 0.00 56 1011.7
20260905032015 90 135 2.0 6.0 0.00 0.00 0.00 55 1011.4
20260905031015 90 135 3.0 6.0 0.00 0.00 0.00 55 1011.4
20260905030015 91 135 3.0 5.0 0.00 0.00 0.00 54 1011.4
20260905025015 91 135 2.0 4.0 0.00 0.00 0.00 55 1011.1
20260905024035 91 135 2.0 4.0 0.00 0.00 0.00 54 1011.0
20260905023035 92 113 2.0 5.0 0.00 0.00 0.00 54 1011.1
20260905022035 92 135 3.0 7.0 0.00 0.00 0.00 54 1010.8
20260905021015 92 113 3.0 7.0 0.00 0.00 0.00 53 1010.7
20260905020015 92 135 2.0 6.0 0.00 0.00 0.00 53 1010.4
20260905015036 93 135 3.0 9.0 0.00 0.00 0.00 53 1010.2
20260905014035 93 113 4.0 10.0 0.00 0.00 0.00 53 1010.1
20260905013015 93 113 4.0 8.0 0.00 0.00 0.00 52 1010.2
20260905012016 94 135 4.0 10.0 0.00 0.00 0.00 52 1010.1
20260905011015 94 135 4.0 12.0 0.00 0.00 0.00 51 1009.8
20260905010015 94 135 5.0 11.0 0.00 0.00 0.00 51 1009.8
20260905005015 95 135 3.0 10.0 0.00 0.00 0.00 50 1009.7
20260905004015 95 113 4.0 11.0 0.00 0.00 0.00 49 1009.6
20260905003015 96 135 4.0 9.0 0.00 0.00 0.00 48 1009.3
20260905002016 97 135 3.0 13.0 0.00 0.00 0.00 48 1009.4
20260905001015 97 113 4.0 8.0 0.00 0.00 0.00 46 1009.3
20260905000015 97 135 4.0 7.0 0.00 0.00 0.00 46 1009.4
20260904235015 97 135 3.0 10.0 0.00 0.00 0.00 45 1009.4
20260904234015 98 180 3.0 7.0 0.00 0.00 0.00 44 1009.2
20260904233015 98 135 3.0 6.0 0.00 0.00 0.00 44 1009.3
20260904232035 98 158 4.0 8.0 0.00 0.00 0.00 44 1009.3
20260904231015 98 135 3.0 8.0 0.00 0.00 0.00 44 1009.4
20260904230015 98 158 4.0 9.0 0.00 0.00 0.00 44 1009.3
20260904225015 98 90 3.0 6.0 0.00 0.00 0.00 45 1009.4
20260904224015 98 135 3.0 8.0 0.00 0.00 0.00 45 1009.6
20260904223015 99 180 3.0 8.0 0.00 0.00 0.00 45 1009.7
20260904222015 99 135 3.0 9.0 0.00 0.00 0.00 45 1009.7
20260904221015 99 158 3.0 8.0 0.00 0.00 0.00 45 1009.8
20260904220015 100 158 3.0 8.0 0.00 0.00 0.00 44 1009.7
20260904215015 101 113 3.0 9.0 0.00 0.00 0.00 43 1009.9
20260904214035 101 113 4.0 11.0 0.00 0.00 0.00 43 1009.8
20260904213015 101 180 4.0 11.0 0.00 0.00 0.00 43 1009.8
20260904212035 101 203 5.0 12.0 0.00 0.00 0.00 42 1010.2
20260904211015 101 113 4.0 10.0 0.00 0.00 0.00 43 1010.3
20260904210015 101 158 4.0 12.0 0.00 0.00 0.00 43 1010.4
20260904205017 101 135 5.0 13.0 0.00 0.00 0.00 43 1010.5
20260904204017 101 180 4.0 10.0 0.00 0.00 0.00 44 1010.7
20260904203017 101 113 5.0 11.0 0.00 0.00 0.00 45 1010.7
20260904202017 101 113 5.0 11.0 0.00 0.00 0.00 44 1010.9
20260904201017 102 135 4.0 9.0 0.00 0.00 0.00 44 1011.1
20260904200017 102 203 5.0 16.0 0.00 0.00 0.00 45 1011.2
20260904195017 101 158 3.0 8.0 0.00 0.00 0.00 46 1011.5
20260904194015 101 225 5.0 13.0 0.00 0.00 0.00 47 1011.5
20260904193017 100 135 5.0 11.0 0.00 0.00 0.00 47 1011.6
20260904192017 100 203 4.0 13.0 0.00 0.00 0.00 47 1011.6
20260904191017 100 158 5.0 13.0 0.00 0.00 0.00 46 1011.8
20260904190017 100 158 5.0 11.0 0.00 0.00 0.00 46 1011.9
20260904185017 99 113 4.0 9.0 0.00 0.00 0.00 47 1011.9
20260904184017 99 158 6.0 16.0 0.00 0.00 0.00 47 1012.1
20260904183017 99 90 3.0 9.0 0.00 0.00 0.00 48 1012.2
20260904182017 99 180 4.0 10.0 0.00 0.00 0.00 49 1012.4
20260904181017 98 158 2.0 6.0 0.00 0.00 0.00 51 1012.5
20260904180017 97 180 3.0 12.0 0.00 0.00 0.00 50 1012.6
20260904175037 96 135 3.0 8.0 0.00 0.00 0.00 53 1012.7
20260904174017 96 158 5.0 12.0 0.00 0.00 0.00 51 1013.0
20260904173029 95 158 3.0 4.0 0.00 0.00 0.00 54 1013.1
20260904172517 94 158 3.0 8.0 0.00 0.00 0.00 54 1013.2
20260904171517 94 158 3.0 8.0 0.00 0.00 0.00 53 1013.3
20260904170517 94 135 5.0 12.0 0.00 0.00 0.00 55 1013.5
20260904165517 93 180 3.0 7.0 0.00 0.00 0.00 57 1013.4
20260904164517 92 180 4.0 11.0 0.00 0.00 0.00 57 1013.5
20260904163517 92 180 4.0 9.0 0.00 0.00 0.00 59 1013.6
20260904162517 93 158 4.0 9.0 0.00 0.00 0.00 58 1013.6
20260904161537 94 180 4.0 9.0 0.00 0.00 0.00 58 1013.7
20260904160517 93 158 3.0 11.0 0.00 0.00 0.00 63 1013.6
20260904155517 91 203 4.0 9.0 0.00 0.00 0.00 66 1013.7
20260904154517 89 180 4.0 10.0 0.00 0.00 0.00 67 1013.4
20260904153517 88 203 3.0 7.0 0.00 0.00 0.00 72 1013.4
20260904152517 87 158 4.0 9.0 0.00 0.00 0.00 74 1013.5
20260904151517 86 135 4.0 8.0 0.00 0.00 0.00 75 1013.5
20260904150537 86 158 3.0 8.0 0.00 0.00 0.00 76 1013.5
20260904145517 85 158 3.0 8.0 0.00 0.00 0.00 77 1013.4
20260904144517 85 135 3.0 6.0 0.00 0.00 0.00 78 1013.4
20260904143537 84 158 4.0 8.0 0.00 0.00 0.00 80 1013.3
20260904142517 83 158 4.0 9.0 0.00 0.00 0.00 83 1013.2
20260904141517 82 135 4.0 8.0 0.00 0.00 0.00 84 1013.3
20260904140537 81 135 3.0 7.0 0.00 0.00 0.00 85 1013.3
20260904135517 80 135 2.0 5.0 0.00 0.00 0.00 86 1013.2
20260904134517 80 180 2.0 7.0 0.00 0.00 0.00 86 1013.1
20260904133517 80 135 3.0 6.0 0.00 0.00 0.00 86 1013.1
20260904132517 80 158 2.0 7.0 0.00 0.00 0.00 86 1012.8
20260904131537 80 135 2.0 5.0 0.00 0.00 0.00 86 1012.7
20260904130537 79 113 2.0 6.0 0.00 0.00 0.00 86 1012.5
20260904125517 79 135 1.0 4.0 0.00 0.00 0.00 86 1012.5
20260904124537 79 135 2.0 5.0 0.00 0.00 0.00 86 1012.4
20260904123517 79 135 3.0 8.0 0.00 0.00 0.00 86 1012.4
20260904122537 79 113 2.0 5.0 0.00 0.00 0.00 86 1012.4
20260904121517 79 135 2.0 5.0 0.00 0.00 0.00 86 1012.3
20260904120537 79 135 1.0 3.0 0.00 0.00 0.00 86 1012.2
20260904115517 79 135 1.0 4.0 0.00 0.00 0.00 85 1012.1
20260904114517 80 135 1.0 2.0 0.00 0.00 0.00 85 1012.1
20260904113537 80 135 1.0 6.0 0.00 0.00 0.00 85 1012.1
20260904112517 80 158 1.0 4.0 0.00 0.00 0.00 85 1012.0
20260904111517 80 135 1.0 7.0 0.00 0.00 0.00 85 1011.9
20260904110517 80 158 2.0 5.0 0.00 0.00 0.00 85 1011.9
20260904105517 80 135 1.0 4.0 0.00 0.00 0.00 85 1011.7
20260904104517 80 135 1.0 3.0 0.00 0.00 0.00 85 1011.9
20260904103517 80 113 1.0 2.0 0.00 0.00 0.00 85 1011.9
20260904102517 80 158 3.0 7.0 0.00 0.00 0.00 85 1011.8
20260904101517 80 180 2.0 6.0 0.00 0.00 0.00 85 1011.7
20260904100517 80 203 2.0 6.0 0.00 0.00 0.00 84 1011.7
20260904095517 80 203 3.0 6.0 0.00 0.00 0.00 84 1011.6
20260904094517 80 158 3.0 9.0 0.00 0.00 0.00 84 1011.6
20260904093517 80 158 3.0 9.0 0.00 0.00 0.00 84 1011.6
20260904092517 80 158 2.0 5.0 0.00 0.00 0.00 84 1011.6
20260904091517 80 180 2.0 5.0 0.00 0.00 0.00 83 1011.7
20260904091119 80 135 3.0 7.0 0.00 0.00 0.00 83 1011.6
20260904090517 80 158 3.0 8.0 0.00 0.00 0.00 83 1011.6
20260904085517 80 135 3.0 8.0 0.00 0.00 0.00 83 1011.6
20260904084517 80 158 4.0 8.0 0.00 0.00 0.00 83 1011.5
20260904083517 80 158 3.0 7.0 0.00 0.00 0.00 83 1011.5
20260904082517 80 158 3.0 7.0 0.00 0.00 0.00 82 1011.5
20260904081537 80 158 3.0 8.0 0.00 0.00 0.00 82 1011.5
20260904080517 80 158 2.0 4.0 0.00 0.00 0.00 82 1011.4
20260904075517 81 158 3.0 8.0 0.00 0.00 0.00 81 1011.6
20260904074517 81 158 3.0 10.0 0.00 0.00 0.00 81 1011.6
20260904073517 81 158 3.0 6.0 0.00 0.00 0.00 80 1011.6
20260904072517 81 158 3.0 7.0 0.00 0.00 0.00 80 1011.7
20260904071517 81 180 3.0 8.0 0.00 0.00 0.00 79 1011.8
20260904070517 81 158 4.0 8.0 0.00 0.00 0.00 79 1011.8
20260904065517 81 135 3.0 7.0 0.00 0.00 0.00 79 1011.8
20260904064517 81 180 3.0 7.0 0.00 0.00 0.00 78 1011.8
20260904063517 81 158 4.0 9.0 0.00 0.00 0.00 78 1011.9
20260904062517 81 180 3.0 6.0 0.00 0.00 0.00 78 1011.9
20260904061517 81 135 3.0 8.0 0.00 0.00 0.00 77 1012.1
20260904060517 81 158 4.0 7.0 0.00 0.00 0.00 76 1012.2
20260904055516 81 180 4.0 7.0 0.00 0.00 0.00 75 1012.2
20260904054516 82 158 3.0 8.0 0.00 0.00 0.00 74 1012.1
20260904053516 82 158 3.0 6.0 0.00 0.00 0.00 73 1011.9
20260904052516 82 135 3.0 8.0 0.00 0.00 0.00 72 1011.9
20260904051516 82 158 3.0 8.0 0.00 0.00 0.00 72 1011.9
20260904050536 82 135 2.0 5.0 0.00 0.00 0.00 72 1011.9
20260904045537 82 113 2.0 7.0 0.00 0.00 0.00 72 1011.7
20260904044537 82 135 3.0 8.0 0.00 0.00 0.00 72 1011.6
20260904043517 82 158 3.0 8.0 0.00 0.00 0.00 71 1011.6